User: anonymous   Login
Location: Vancouver
(49.2500°N, 123.1330°W)
Time: 09:50:48
(UTC-07:00)
Language:

CZ-2C R/B - Orbit

View from above orbital plane
View from above orbital plane
View from above satellite
View from above satellite

Ground track
Ground track

The orbit data is extracted from the following two-line orbital elements,

1 28480U 04046B   16239.89476404 -.00000021  00000-0  74539-5 0  9996
2 28480  98.1884 349.1489 0142331  13.5959  92.6392 14.25604030612304
Epoch (UTC): 26 August 2016 21:28:27
Eccentricity: 0.0142331
inclination: 98.1884°
perigee height: 704 km
apogee height: 909 km
right ascension of ascending node: 349.1489°
argument of perigee: 13.5959°
revolutions per day: 14.25604030
mean anomaly at epoch: 92.6392°
orbit number at epoch: 61230

The dashed part of the orbit path shows where the satellite is in the earth's shadow,  

DLR